Wind_Speed
8 5 4 6 8 10 11 11 14 16 18 20 18 17 17 18 19 19 18 17 13 10 8 9 11 13 16 18 20 19 19 19 18 16 15 13 12 11 9 8 7 5 4 3
8 5 4 6 10 11 12 13 15 17 19 19 16 15 16 17 18 19 18 16 13 10 7 8 9 11 14 17 20 19 18 18 17 16 14 13 12 10 9 8 7 6 5 3
7 5 6 11 12 11 12 14 16 18 17 17 15 14 16 17 17 17 18 16 13 11 8 7 7 9 12 15 17 18 19 17 17 16 14 13 11 10 9 8 7 7 6 4
8 7 10 14 13 12 14 15 16 16 15 16 12 14 16 16 17 17 16 14 13 11 10 7 5 4 7 11 14 16 17 16 15 14 14 13 11 11 10 9 8 7 6 5
8 8 11 14 13 13 15 14 14 15 16 17 11 9 15 15 18 19 17 15 12 11 9 7 4 1 5 8 11 14 16 15 15 15 14 13 12 12 10 9 9 8 7 6
11 11 13 15 14 14 15 14 15 18 19 19 8 6 12 14 17 19 17 14 11 9 8 6 5 2 2 5 9 12 14 14 14 14 13 13 13 11 10 10 9 8 8 7
9 10 11 13 14 14 15 16 17 18 21 22 11 6 11 14 16 17 15 14 9 8 6 5 4 3 1 3 7 10 13 13 13 13 13 13 12 11 11 11 10 9 9 8
9 10 10 13 14 13 15 15 16 18 18 20 17 10 8 11 14 15 14 11 9 7 6 5 3 3 2 4 7 9 11 12 12 12 12 12 12 11 11 11 11 10 10 9
12 13 13 15 15 15 16 15 15 17 16 16 19 14 10 8 10 12 13 11 9 7 6 5 4 2 2 3 5 8 9 10 10 10 10 11 11 11 12 12 12 11 11 11
14 16 15 16 18 17 16 15 14 14 15 14 17 16 14 10 10 12 13 11 10 8 6 5 4 2 1 2 3 6 7 8 9 10 10 11 12 12 13 13 13 13 13 13
18 20 18 19 20 18 18 15 14 14 14 14 17 19 15 12 12 12 12 11 10 9 7 5 4 3 1 1 2 3 5 7 8 10 11 12 12 13 14 14 14 14 15 15
23 24 24 22 22 22 20 17 16 16 14 13 14 20 17 13 13 11 11 12 11 9 9 7 6 6 5 5 5 6 7 8 10 11 12 13 14 15 15 15 16 16 17 17
27 29 28 23 22 24 21 17 16 15 15 13 13 19 19 16 15 12 12 12 12 11 10 9 9 9 8 7 8 8 9 10 11 12 13 14 15 15 16 17 18 19 20 20
31 33 31 26 25 26 20 16 14 14 13 14 14 18 19 17 17 16 15 15 13 13 13 12 11 11 11 10 11 11 12 13 13 14 15 16 16 17 18 19 20 21 22 23
33 34 32 27 25 24 18 13 13 14 14 16 17 21 22 21 19 18 19 18 16 15 14 14 14 13 12 13 14 15 15 15 16 17 18 19 19 20 21 22 22 23 24 25
35 35 33 30 25 23 19 14 14 17 17 18 20 24 25 23 21 20 20 19 18 18 16 16 16 16 16 16 16 16 17 19 20 20 21 21 22 23 23 24 25 25 26 26
37 37 34 32 26 25 24 20 19 20 20 21 22 25 26 25 22 21 20 19 19 20 19 20 19 19 19 19 19 20 20 21 23 24 24 25 25 26 25 26 27 28 29 30
39 36 34 32 29 29 26 25 24 23 24 25 25 26 27 25 23 22 22 21 21 22 22 22 22 22 22 22 22 23 23 25 26 27 27 28 28 29 30 30 31 32 33 33
40 38 34 32 30 30 28 28 26 25 26 26 25 26 25 24 24 23 22 22 22 22 22 23 23 23 24 24 26 26 27 28 29 30 32 32 32 33 34 34 35 35 35 36
39 37 34 33 31 30 30 30 28 28 28 26 25 26 26 24 23 21 21 22 22 22 23 23 25 26 26 27 28 28 30 31 32 34 35 35 36 36 36 36 37 38 38 39
33 35 33 32 32 32 33 32 28 25 25 24 24 24 25 25 23 22 21 21 22 23 24 25 25 27 28 29 30 31 32 34 35 36 36 37 37 37 37 38 38 38 39 40
33 36 36 35 33 34 33 30 27 25 25 24 24 25 24 25 24 23 23 23 23 23 24 25 27 28 29 30 32 33 35 36 37 37 37 38 39 39 39 39 39 39 41 41
32 33 35 35 36 35 35 33 30 27 23 23 25 26 25 26 26 26 25 25 25 25 26 27 28 29 30 31 33 34 35 37 37 37 38 38 39 40 39 39 39 40 40 41
25 28 29 28 29 30 32 32 28 23 24 25 25 26 26 26 27 26 27 27 27 27 28 28 29 30 31 32 33 33 34 35 36 37 37 36 37 37 37 38 38 40 42 43
20 18 21 25 27 26 25 25 21 21 23 24 25 25 26 26 26 27 28 28 28 29 29 30 31 31 31 32 33 34 34 35 36 36 36 37 37 38 38 39 40 42 43 44
17 20 21 21 21 21 21 20 20 20 21 23 25 26 26 26 27 28 28 29 29 29 31 31 32 33 33 33 33 34 35 36 37 37 37 38 39 40 41 42 43 44 46 47
Wind_Direction
291 294 329 340 314 299 301 308 308 316 318 320 325 325 326 339 340 338 338 338 334 322 295 268 250 240 231 227 227 227 229 228 226 228 232 230 229 230 232 234 231 231 230 226
285 289 304 289 287 295 308 313 314 315 315 315 318 316 327 341 346 344 343 344 344 335 317 288 265 249 233 225 225 230 227 226 225 223 224 223 223 223 224 221 220 217 210 198
274 272 281 280 285 296 307 308 308 311 314 310 312 314 328 342 348 348 346 348 349 348 340 312 280 252 235 225 223 225 220 221 219 219 219 217 214 217 214 212 209 208 199 190
259 239 254 271 280 291 297 297 301 310 308 296 302 308 321 340 345 344 348 351 351 351 351 342 319 260 228 215 216 215 209 209 206 207 210 208 208 206 204 201 201 201 196 192
249 246 261 269 277 285 290 298 306 307 299 289 288 309 322 334 339 342 345 348 351 354 360 5 360 307 219 214 207 206 201 199 199 204 204 203 199 198 200 200 200 199 197 198
247 230 244 263 271 280 292 302 313 313 312 315 323 330 313 328 336 337 339 342 343 353 6 16 18 13 188 193 195 198 194 193 198 200 200 198 196 198 202 202 204 204 206 210
250 236 241 256 267 279 291 304 313 314 318 325 329 314 306 322 330 330 332 340 343 348 2 16 30 41 129 179 185 184 187 190 192 195 194 194 197 201 205 208 212 213 217 222
241 258 269 270 270 274 286 295 299 304 312 315 313 294 296 314 327 329 331 335 343 349 354 8 22 40 100 142 163 178 185 190 192 193 197 199 201 205 211 216 219 222 226 231
232 250 266 273 267 270 280 285 286 294 302 303 301 300 294 299 325 330 330 330 332 340 353 359 3 23 68 136 173 183 186 189 193 196 200 204 210 215 220 223 226 230 235 239
231 239 249 265 270 272 278 280 276 279 286 292 298 298 303 314 325 323 324 322 323 325 333 347 2 12 50 115 156 184 191 195 201 206 211 218 224 227 230 232 234 238 244 247
239 241 242 250 261 264 265 276 280 277 272 279 294 301 308 316 320 315 317 314 314 313 309 309 313 319 299 224 200 203 212 218 222 224 226 229 234 236 238 240 243 247 251 255
238 244 246 247 254 258 253 261 270 276 272 273 284 291 293 298 301 301 303 304 302 304 302 295 291 289 279 263 246 238 236 237 238 239 239 241 242 244 246 249 252 254 257 261
230 239 246 248 252 253 247 252 258 266 271 273 272 282 291 297 297 295 298 297 295 297 293 289 282 279 277 273 265 258 253 251 250 249 249 249 250 252 254 256 257 259 261 264
227 237 241 241 250 263 261 250 246 256 260 267 268 276 286 287 290 294 296 297 290 288 286 285 280 277 275 273 269 264 261 261 260 260 260 259 260 260 260 261 261 262 264 266
229 237 241 240 247 260 268 260 247 254 259 259 265 272 276 279 285 291 295 290 284 279 278 280 281 277 275 274 272 269 267 267 268 268 266 264 264 264 265 265 266 267 268 270
228 235 238 237 237 251 259 252 250 253 260 262 261 265 270 276 278 287 290 286 280 278 278 278 279 278 277 276 276 273 271 271 272 271 271 270 267 266 268 268 268 270 272 273
225 230 232 234 232 238 245 246 249 256 260 262 259 263 270 275 278 284 286 284 279 276 275 274 274 276 275 276 276 279 278 275 276 277 277 276 274 271 270 270 272 273 275 276
227 229 229 232 231 236 239 242 245 249 256 259 262 267 272 274 276 279 282 282 280 278 276 277 277 275 273 274 275 275 277 279 278 278 280 280 280 279 276 275 276 276 276 277
229 227 227 230 233 239 240 241 241 245 249 254 260 268 272 273 275 276 278 279 280 280 280 280 279 278 278 278 277 276 279 280 278 278 278 278 278 278 277 278 278 278 278 279
231 228 230 230 229 236 238 241 244 246 248 252 259 265 270 272 275 276 277 278 280 279 279 280 281 281 280 281 279 279 282 282 282 279 278 278 279 279 276 277 277 279 281 281
229 228 229 228 232 238 243 246 245 244 248 254 260 265 267 273 277 280 278 278 279 279 279 281 283 283 283 283 282 283 284 285 284 281 279 279 278 278 278 279 281 283 284 284
226 228 230 230 231 237 243 246 244 248 248 252 259 263 266 273 276 279 280 280 282 281 282 282 284 284 284 284 284 284 284 285 284 282 280 281 280 279 278 279 281 283 285 286
223 222 225 228 232 239 245 248 248 248 250 254 259 265 269 273 277 280 282 282 283 285 284 284 284 284 285 285 285 284 284 284 284 283 283 282 281 278 278 281 283 286 289 289
229 230 228 227 234 241 244 248 250 249 251 258 261 266 269 273 276 278 281 283 284 285 285 285 284 285 286 287 287 286 286 285 284 284 284 284 284 283 283 285 286 288 289 290
236 238 235 238 237 243 242 244 251 256 257 259 264 268 272 275 277 280 282 283 284 284 285 284 284 286 286 286 287 286 287 287 288 287 285 285 286 287 286 286 287 288 289 290
246 244 245 246 249 252 255 256 259 261 263 265 266 271 274 276 278 280 282 284 284 286 286 286 286 286 286 285 286 287 287 287 287 286 286 286 287 287 288 288 289 289 290 291
Height
5886 5887 5886 5886 5887 5888 5887 5886 5883 5881 5878 5875 5871 5867 5863 5859 5855 5851 5847 5843 5839 5837 5835 5835 5835 5837 5838 5840 5844 5848 5851 5855 5859 5863 5866 5868 5871 5873 5875 5876 5877 5878 5879 5879
5884 5885 5885 5886 5886 5886 5885 5883 5881 5879 5877 5873 5869 5866 5862 5858 5854 5851 5847 5843 5839 5837 5835 5834 5834 5835 5836 5839 5842 5845 5849 5853 5857 5861 5864 5867 5869 5871 5873 5875 5876 5877 5878 5879
5882 5884 5884 5885 5885 5884 5883 5882 5880 5878 5874 5870 5867 5863 5860 5857 5854 5851 5847 5843 5840 5837 5835 5833 5833 5833 5834 5836 5839 5843 5847 5851 5855 5858 5862 5865 5867 5870 5872 5873 5875 5877 5877 5878
5879 5881 5883 5883 5883 5882 5881 5880 5877 5874 5871 5867 5865 5862 5858 5856 5854 5851 5848 5844 5841 5838 5836 5834 5832 5832 5833 5835 5838 5842 5845 5849 5853 5856 5860 5863 5865 5868 5870 5872 5874 5876 5877 5878
5876 5879 5880 5880 5880 5880 5878 5876 5874 5871 5866 5862 5858 5859 5858 5854 5853 5851 5848 5845 5842 5839 5837 5835 5834 5833 5834 5835 5838 5841 5844 5848 5851 5855 5858 5861 5864 5866 5869 5871 5873 5874 5876 5877
5873 5875 5877 5878 5878 5877 5875 5874 5871 5867 5863 5857 5854 5858 5857 5854 5852 5851 5848 5846 5843 5841 5839 5837 5835 5835 5835 5836 5838 5841 5844 5848 5851 5854 5857 5860 5863 5865 5867 5870 5872 5873 5875 5876
5870 5872 5873 5874 5874 5874 5873 5872 5869 5866 5862 5856 5853 5855 5855 5853 5852 5851 5848 5846 5844 5842 5840 5839 5838 5837 5836 5837 5839 5842 5845 5848 5851 5854 5856 5859 5862 5864 5866 5868 5870 5872 5873 5874
5867 5869 5870 5870 5870 5871 5870 5870 5868 5865 5862 5859 5854 5852 5853 5852 5852 5850 5848 5846 5845 5843 5842 5840 5839 5839 5838 5839 5840 5842 5845 5848 5851 5853 5856 5859 5861 5863 5865 5867 5869 5870 5872 5873
5864 5866 5867 5867 5866 5868 5867 5867 5866 5863 5861 5860 5854 5850 5848 5849 5850 5849 5847 5846 5845 5844 5843 5842 5841 5840 5840 5840 5842 5843 5846 5848 5851 5853 5855 5858 5860 5862 5864 5865 5866 5868 5869 5870
5861 5862 5864 5864 5864 5864 5865 5864 5863 5861 5859 5858 5854 5849 5848 5847 5848 5848 5847 5846 5845 5844 5843 5843 5842 5841 5841 5842 5843 5844 5846 5848 5850 5852 5854 5856 5858 5860 5862 5863 5864 5865 5867 5868
5857 5858 5860 5861 5860 5860 5860 5860 5859 5858 5857 5855 5853 5851 5846 5845 5846 5847 5847 5846 5845 5844 5843 5843 5842 5842 5843 5843 5844 5845 5846 5848 5850 5852 5853 5855 5857 5858 5859 5860 5861 5862 5864 5864
5853 5854 5854 5856 5856 5855 5854 5855 5855 5855 5854 5853 5852 5851 5845 5844 5844 5844 5845 5845 5844 5843 5842 5842 5842 5842 5843 5843 5844 5844 5846 5847 5848 5850 5851 5852 5854 5855 5856 5857 5858 5859 5860 5860
5846 5848 5848 5850 5852 5849 5848 5850 5851 5851 5851 5850 5850 5849 5844 5843 5842 5841 5842 5842 5842 5841 5841 5841 5841 5841 5841 5842 5843 5843 5844 5845 5846 5847 5848 5849 5850 5851 5852 5853 5853 5854 5855 5855
5838 5839 5842 5845 5844 5841 5841 5843 5845 5847 5847 5847 5846 5843 5842 5840 5840 5839 5840 5840 5840 5840 5840 5839 5839 5839 5839 5840 5841 5841 5842 5842 5843 5844 5844 5845 5846 5847 5847 5848 5848 5849 5849 5849
5830 5833 5835 5838 5838 5838 5837 5838 5840 5842 5843 5844 5843 5840 5838 5837 5837 5837 5837 5837 5837 5837 5837 5837 5837 5837 5837 5837 5838 5838 5838 5839 5839 5840 5840 5840 5841 5841 5842 5842 5842 5842 5842 5842
5821 5826 5829 5831 5834 5834 5833 5835 5836 5838 5838 5839 5839 5836 5834 5835 5833 5834 5834 5834 5834 5834 5834 5834 5834 5834 5834 5834 5834 5834 5834 5835 5835 5835 5835 5835 5835 5835 5835 5835 5835 5835 5835 5835
5810 5816 5820 5824 5827 5828 5829 5831 5832 5832 5832 5833 5833 5831 5830 5830 5829 5830 5830 5830 5830 5830 5829 5830 5829 5831 5831 5830 5830 5830 5830 5830 5830 5830 5829 5829 5829 5828 5828 5828 5828 5828 5827 5827
5802 5806 5812 5816 5820 5821 5825 5826 5826 5826 5827 5826 5825 5825 5825 5825 5825 5825 5826 5825 5825 5825 5824 5825 5825 5825 5825 5825 5825 5824 5824 5824 5824 5824 5823 5823 5823 5822 5821 5821 5821 5820 5819 5818
5794 5799 5803 5808 5811 5814 5818 5817 5817 5818 5819 5818 5819 5819 5819 5819 5820 5821 5821 5820 5820 5820 5819 5820 5820 5820 5819 5819 5819 5818 5817 5818 5817 5816 5816 5815 5815 5813 5813 5813 5812 5811 5810 5809
5785 5789 5794 5800 5805 5807 5809 5808 5808 5812 5811 5812 5813 5814 5813 5814 5814 5815 5815 5815 5814 5814 5814 5814 5814 5814 5813 5813 5812 5811 5811 5810 5809 5809 5807 5805 5805 5803 5803 5803 5802 5801 5800 5798
5778 5783 5786 5793 5797 5799 5800 5800 5802 5804 5804 5805 5807 5808 5807 5807 5809 5809 5809 5809 5809 5809 5808 5808 5808 5807 5806 5806 5805 5804 5804 5803 5801 5800 5798 5797 5795 5794 5794 5792 5791 5790 5789 5787
5771 5777 5782 5787 5790 5793 5790 5793 5795 5796 5795 5798 5800 5801 5802 5802 5801 5802 5803 5803 5803 5802 5802 5802 5802 5801 5800 5799 5798 5796 5795 5794 5792 5790 5789 5788 5786 5784 5784 5783 5781 5779 5778 5776
5763 5768 5772 5778 5783 5784 5786 5787 5788 5788 5788 5791 5793 5795 5796 5796 5796 5796 5796 5796 5796 5795 5795 5795 5794 5793 5792 5791 5790 5788 5786 5785 5783 5781 5780 5778 5776 5774 5773 5771 5770 5768 5766 5764
5759 5762 5765 5769 5773 5776 5779 5780 5781 5780 5784 5786 5787 5788 5790 5790 5790 5789 5789 5789 5789 5788 5788 5787 5786 5785 5784 5783 5781 5779 5778 5776 5774 5772 5770 5768 5766 5764 5763 5761 5759 5757 5755 5752
5754 5758 5761 5764 5767 5769 5770 5773 5774 5776 5778 5780 5781 5782 5783 5784 5784 5783 5782 5782 5781 5781 5780 5779 5778 5776 5775 5774 5772 5771 5769 5767 5764 5762 5760 5758 5756 5754 5752 5750 5748 5746 5743 5740
5753 5757 5760 5760 5762 5763 5764 5766 5769 5771 5772 5773 5775 5776 5776 5776 5776 5776 5775 5774 5774 5773 5772 5771 5770 5768 5767 5765 5763 5761 5759 5757 5755 5752 5750 5748 5745 5743 5741 5738 5736 5732 5730 5726